Location: Chateh
(58.6667°N, 118.6000°W)
Time: 09:07:32
(UTC+00:00)

O/OREOS (USA 219) - Pass Details

Date: 13 December 2023
Orbit: 621 x 646 km, 72.0° (Epoch: 22 May)

Event Time Altitude Azimuth Distance (km) Brightness Sun altitude
Exits shadow 12:35:23 23° 23° (NNE) 1,333 ? -29.1°
Maximum altitude 12:35:36 24° 28° (NNE) 1,330 ? -29.0°
Drops below altitude 10° 12:39:15 10° 82° (E) 2,016 ? -28.6°
Sets 12:41:55 0° 97° (E) 2,926 ? -28.2°
